Home > Weather > Hamburg > Past weeks

Flag for Germany Weather for the Past 2 Weeks in Hamburg, Hamburg, Germany

Now
36 °F

Passing clouds.


Feels Like: 29 °F
Forecast: 34 / 38 °F
Wind: 8 mph from East

Location: Hamburg-Fuhlsbuettel

Current Time: Feb 13, 2016 at 11:10:32 PM

Latest Report: Feb 13, 2016 at 10:20 PM


Visibility: N/A

Pressure: 29.27 "Hg

Humidity: 93%

Dew point: 34 °F

Location of HamburgLocation

Historic Weather in Hamburg — Graph

°F

Hamburg Temperature Yesterday

Maximum temperature yesterday: 41 °F (at 11:50 AM)
Minimum temperature yesterday: 32 °F (at 11:50 PM)
Average temperature yesterday: 36 °F

High & Low Weather Summary for the Past Weeks

 TemperatureHumidityPressure
High54 °F (Feb 1, 8:20 PM)100% (Jan 31, 2:20 AM)30.18 "Hg (Jan 31, 2:20 AM)
Low30 °F (Feb 13, 3:20 AM)57% (Feb 2, 6:20 PM)28.74 "Hg (Feb 9, 9:50 PM)
Average42 °F86%29.59 "Hg
* Reported Jan 29 9:20 PM — Feb 13 9:20 PM, Hamburg, Weather by CustomWeather, © 2016

Note: Actual official high and low records may vary slightly from our data, if they occured in-between our weather recording intervals... More about our weather records

Advertising

Hamburg Weather History for the Previous 24 Hours

 ConditionsComfort  
Time TempWeatherWind HumidityBarometerVisibility
9:20 PM
Sat, Feb 13
36 °FPassing clouds.12 mph93%29.27 "HgN/A
8:50 PM36 °FPassing clouds.13 mph93%29.27 "Hg5 mi
8:20 PM36 °FPassing clouds.10 mph93%29.30 "Hg4 mi
7:50 PM36 °FPassing clouds.13 mph93%29.30 "Hg4 mi
7:20 PM36 °FPassing clouds.13 mph93%29.30 "Hg4 mi
6:50 PM36 °FPartly cloudy.12 mph93%29.30 "Hg4 mi
6:20 PM36 °FPartly cloudy.13 mph93%29.30 "Hg5 mi
5:50 PM36 °FPassing clouds.12 mph93%29.33 "Hg5 mi
5:20 PM36 °FPartly sunny.12 mph93%29.33 "HgN/A
4:50 PM37 °FPartly sunny.9 mph87%29.33 "HgN/A
4:20 PM37 °FScattered clouds.8 mph87%29.33 "HgN/A
3:50 PM37 °FScattered clouds.10 mph87%29.33 "HgN/A
3:20 PM37 °FScattered clouds.12 mph87%29.36 "HgN/A
2:50 PM37 °FScattered clouds.12 mph87%29.36 "HgN/A
2:20 PM37 °FScattered clouds.9 mph93%29.36 "HgN/A
1:50 PM36 °FPartly sunny.9 mph93%29.39 "HgN/A
1:20 PM36 °FPartly sunny.8 mph100%29.39 "Hg6 mi
12:50 PM36 °FPartly sunny.9 mph100%29.39 "Hg5 mi
12:20 PM36 °FPartly sunny.9 mph100%29.42 "Hg4 mi
11:50 AM34 °FPartly sunny.8 mph100%29.42 "Hg4 mi
11:20 AM34 °FFog.8 mph100%29.45 "Hg3 mi
10:50 AM32 °FIce fog.8 mph100%29.45 "Hg2 mi
10:20 AM32 °FIce fog.8 mph100%29.45 "Hg1 mi
9:50 AM30 °FIce fog.7 mph100%29.45 "Hg1 mi
9:20 AM30 °FIce fog.6 mph100%29.45 "Hg1 mi
8:50 AM30 °FIce fog.9 mph100%29.45 "Hg1 mi
8:20 AM30 °FIce fog.6 mph100%29.47 "Hg1 mi
7:50 AM30 °FIce fog.6 mph100%29.47 "Hg1 mi
7:20 AM30 °FChilly.7 mph100%29.45 "Hg1 mi
6:50 AM30 °FChilly.8 mph100%29.47 "Hg1 mi
6:20 AM30 °FIce fog.6 mph100%29.47 "Hg1 mi
5:50 AM30 °FIce fog.6 mph100%29.47 "Hg0 mi
5:20 AM30 °FIce fog.5 mph100%29.47 "Hg0 mi
4:50 AM30 °FIce fog.5 mph100%29.47 "Hg0 mi
4:20 AM30 °FIce fog.5 mph100%29.47 "Hg0 mi
3:20 AM30 °FIce fog.6 mph100%29.50 "Hg0 mi
2:20 AM32 °FIce fog.3 mph100%29.50 "Hg0 mi
1:50 AM32 °FIce fog.5 mph100%29.50 "Hg0 mi
1:20 AM32 °FIce fog.5 mph100%29.50 "Hg0 mi
12:50 AM32 °FFog.2 mph100%29.50 "Hg0 mi
12:20 AM32 °FFog.3 mph100%29.50 "Hg1 mi
11:50 PM
Fri, Feb 12
32 °FIce fog.3 mph100%29.53 "Hg1 mi
11:20 PM34 °FFog.3 mph93%29.53 "Hg2 mi
Weather by CustomWeather, © 2016

See weather overviewHow to use our weather pages